Location: Unspecified
(0.0000°N, 0.0000°E)
Time: 00:29:12
(UTC+00:00)

UNISAT 5 - Pass Details

Date: 11 June 2023
Orbit: 572 x 612 km, 97.5° (Epoch: 01 October)

Event Time Altitude Azimuth Distance (km) Brightness Sun altitude
Rises 04:08:01 0° 13° (NNE) 2,769 ? -25.5°
Reaches altitude 10° 04:10:10 10° 14° (NNE) 1,870 ? -25.0°
Enters shadow 04:14:09 82° 82° (E) 581 ? -24.1°
